ProjectID,Date,Electric Generation,Electric Utility Import,Facility Electric Load
,YYYY-MM-DD,kW,kW,kW
326,2016-06-01,32.764250000000004,213.83333333333334,246.59758333333335
326,2016-06-02,-0.03708333333333334,211.58333333333334,211.54625000000001
326,2016-06-03,-0.03708333333333334,184.83333333333334,184.79625000000001
326,2016-06-04,-0.03708333333333334,218.08333333333334,218.04625000000001
326,2016-06-05,-0.03708333333333334,198.95833333333334,198.92125000000001
326,2016-06-06,-0.03750000000000001,212.04166666666666,212.00416666666666
326,2016-06-07,-0.03708333333333334,235.04166666666666,235.00458333333333
326,2016-06-08,-0.03708333333333335,169.58333333333334,169.54625000000001
326,2016-06-09,-0.03708333333333335,149.375,149.33791666666667
326,2016-06-10,-0.03750000000000001,153.45833333333334,153.42083333333335
326,2016-06-11,-0.03708333333333335,193.625,193.58791666666667
326,2016-06-12,-0.03708333333333334,235.75,235.71291666666667
326,2016-06-13,-0.03750000000000001,166.70833333333334,166.67083333333335
326,2016-06-14,-0.03708333333333334,173.66666666666666,173.62958333333333
326,2016-06-15,-0.03708333333333334,206.08333333333334,206.04625000000001
326,2016-06-16,-0.03708333333333335,213.54166666666666,213.50458333333333
326,2016-06-17,-0.03708333333333334,199.29166666666666,199.25458333333333
326,2016-06-18,-0.03750000000000001,200.83333333333334,200.79583333333335
326,2016-06-19,-0.03708333333333334,227.45833333333334,227.42125000000001
326,2016-06-20,-0.03750000000000001,250.41666666666666,250.37916666666666
326,2016-06-21,-0.03708333333333334,266.75,266.7129166666667
326,2016-06-22,-0.03708333333333335,262.875,262.8379166666667
326,2016-06-23,-0.03750000000000001,247.33333333333334,247.29583333333335
326,2016-06-24,-0.03708333333333334,241.45833333333334,241.42125000000001
326,2016-06-25,-0.03708333333333334,234.375,234.33791666666667
326,2016-06-26,-0.03750000000000001,249.54166666666666,249.50416666666666
326,2016-06-27,-0.03708333333333334,250.66666666666666,250.62958333333333
326,2016-06-28,-0.03708333333333335,234.04166666666666,234.00458333333333
326,2016-06-29,-0.03750000000000001,245.08333333333334,245.04583333333335
326,2016-06-30,-0.03708333333333334,244.20833333333334,244.17125000000001
326,2016-07-01,-0.03708333333333334,252.41666666666666,252.37958333333333
326,2016-07-02,-0.03750000000000001,207.54166666666666,207.50416666666666
326,2016-07-03,-0.03708333333333334,200.75,200.71291666666667
326,2016-07-04,-0.03708333333333334,219.33333333333334,219.29625000000001
326,2016-07-05,-0.03750000000000001,275.875,275.8375
326,2016-07-06,-0.03708333333333334,347.7083333333333,347.67125
326,2016-07-07,-0.03750000000000001,358.2916666666667,358.25416666666666
326,2016-07-08,2.5775833333333336,324.0416666666667,326.61925
326,2016-07-09,-0.03708333333333334,222.0,221.96291666666667
326,2016-07-10,-0.03708333333333334,224.125,224.08791666666667
326,2016-07-11,-0.03708333333333335,221.08333333333334,221.04625000000001
326,2016-07-12,-0.03708333333333334,250.91666666666666,250.87958333333333
326,2016-07-13,-0.03750000000000001,273.25,273.2125
326,2016-07-14,-0.03708333333333335,303.375,303.3379166666667
326,2016-07-15,-0.03708333333333334,350.7916666666667,350.75458333333336
326,2016-07-16,-0.03708333333333334,333.5833333333333,333.54625
326,2016-07-17,-0.03708333333333334,332.0,331.9629166666667
326,2016-07-18,-0.03708333333333335,348.4583333333333,348.42125
326,2016-07-19,-0.03708333333333334,301.1666666666667,301.12958333333336
326,2016-07-20,-0.03750000000000001,270.7083333333333,270.6708333333333
326,2016-07-21,-0.03708333333333334,309.2083333333333,309.17125
326,2016-07-22,-0.03708333333333335,353.4166666666667,353.37958333333336
326,2016-07-23,-0.03708333333333334,367.1666666666667,367.12958333333336
326,2016-07-24,-0.03708333333333334,362.9166666666667,362.87958333333336
326,2016-07-25,-0.03708333333333335,374.0416666666667,374.00458333333336
326,2016-07-26,-0.03625000000000001,342.7083333333333,342.6720833333333
326,2016-07-27,-0.03625000000000001,357.9166666666667,357.8804166666667
326,2016-07-28,-0.03666666666666668,366.9583333333333,366.9216666666666
326,2016-07-29,-0.03625000000000001,313.7083333333333,313.6720833333333
326,2016-07-30,-0.03625000000000001,301.2916666666667,301.2554166666667
326,2016-07-31,-0.036666666666666674,277.375,277.3383333333333
326,2016-08-01,-0.03625000000000001,246.54166666666666,246.50541666666666
326,2016-08-02,-0.03666666666666668,223.91666666666666,223.88
326,2016-08-03,-0.03625000000000001,223.16666666666666,223.13041666666666
326,2016-08-04,-0.03625000000000001,240.83333333333334,240.79708333333335
326,2016-08-05,-0.03666666666666668,247.41666666666666,247.38
326,2016-08-06,-0.03625000000000001,283.0416666666667,283.0054166666667
326,2016-08-07,-0.03625000000000001,293.7083333333333,293.6720833333333
326,2016-08-08,-0.036666666666666674,307.3333333333333,307.2966666666666
326,2016-08-09,-0.03625000000000001,310.625,310.58875
326,2016-08-10,-0.03625000000000001,331.5833333333333,331.5470833333333
326,2016-08-11,-0.03625000000000001,371.75,371.71375
326,2016-08-12,-0.03625000000000001,380.0,379.96375
326,2016-08-13,-0.036666666666666674,398.4166666666667,398.38
326,2016-08-14,-0.03625000000000001,414.0,413.96375
326,2016-08-15,-0.03666666666666668,382.25,382.2133333333333
326,2016-08-16,-0.03625000000000001,379.75,379.71375
326,2016-08-17,-0.03625000000000001,334.7083333333333,334.6720833333333
326,2016-08-18,-0.03666666666666668,310.4166666666667,310.38
326,2016-08-19,-0.03625000000000001,317.0,316.96375
326,2016-08-20,-0.03666666666666668,318.25,318.2133333333333
326,2016-08-21,-0.03625000000000001,305.2083333333333,305.1720833333333
326,2016-08-22,-0.03625000000000001,237.91666666666666,237.88041666666666
326,2016-08-23,-0.03666666666666668,214.83333333333334,214.79666666666668
326,2016-08-24,-0.03625000000000001,251.54166666666666,251.50541666666666
326,2016-08-25,-0.03625000000000001,273.0833333333333,273.0470833333333
326,2016-08-26,-0.036666666666666674,317.8333333333333,317.7966666666666
326,2016-08-27,-0.03625000000000001,303.875,303.83875
326,2016-08-28,-0.03666666666666668,297.9166666666667,297.88
326,2016-08-29,-0.03625000000000001,308.5833333333333,308.5470833333333
326,2016-08-30,-0.03666666666666668,286.5,286.4633333333333
326,2016-08-31,-0.03625000000000001,291.875,291.83875
326,2016-09-01,-0.03625000000000001,263.2083333333333,263.1720833333333
326,2016-09-02,-0.036666666666666674,218.58333333333334,218.54666666666668
326,2016-09-03,-0.03625000000000001,199.625,199.58875
326,2016-09-04,-0.03666666666666668,197.58333333333334,197.54666666666668
326,2016-09-05,-0.03625000000000001,198.83333333333334,198.79708333333335
326,2016-09-06,-0.03625000000000001,216.54166666666666,216.50541666666666
326,2016-09-07,-0.03666666666666668,247.375,247.33833333333334
326,2016-09-08,53.02808333333334,264.5833333333333,317.6114166666666
326,2016-09-09,102.96645833333332,264.5833333333333,367.54979166666664
326,2016-09-10,44.02670833333335,330.875,374.9017083333334
326,2016-09-11,-0.03708333333333334,315.4583333333333,315.42125
326,2016-09-12,-0.03666666666666668,226.375,226.33833333333334
326,2016-09-13,22.866625000000003,201.875,224.741625
326,2016-09-14,58.807291666666664,192.83333333333334,251.640625
326,2016-09-15,103.89108333333333,98.45833333333333,202.34941666666666
326,2016-09-16,76.84470833333334,108.0,184.84470833333336
326,2016-09-17,100.18916666666662,91.54166666666667,191.7308333333333
326,2016-09-18,81.46645833333334,162.91666666666666,244.383125
326,2016-09-19,100.164,147.375,247.539
326,2016-09-20,82.17437500000001,162.625,244.799375
326,2016-09-21,100.18820833333332,150.125,250.3132083333333
326,2016-09-22,80.261625,161.625,241.88662499999998
326,2016-09-23,101.46608333333336,154.125,255.59108333333336
326,2016-09-24,76.050875,117.91666666666667,193.96754166666668
326,2016-09-25,70.35429166666667,92.91666666666667,163.27095833333334
326,2016-09-26,77.96554166666665,83.20833333333333,161.17387499999998
326,2016-09-27,112.86804166666666,68.16666666666667,181.03470833333333
326,2016-09-28,75.16345833333335,93.625,168.78845833333335
326,2016-09-29,103.07587500000001,57.833333333333336,160.90920833333334
326,2016-09-30,104.12512500000001,54.083333333333336,158.20845833333334
326,2016-10-01,109.59654166666665,53.25,162.84654166666667
326,2016-10-02,109.1042916666667,50.666666666666664,159.77095833333337
326,2016-10-03,109.65658333333333,49.875,159.53158333333334
326,2016-10-04,111.47283333333333,52.541666666666664,164.0145
326,2016-10-05,98.905875,59.041666666666664,157.94754166666667
326,2016-10-06,99.99616666666667,56.875,156.87116666666668
326,2016-10-07,109.98112500000002,55.333333333333336,165.31445833333336
326,2016-10-08,110.20158333333332,64.45833333333333,174.65991666666665
326,2016-10-09,100.22912500000001,70.79166666666667,171.0207916666667
326,2016-10-10,76.175625,83.54166666666667,159.71729166666665
326,2016-10-11,99.43787500000002,56.416666666666664,155.85454166666668
326,2016-10-12,76.47345833333334,80.16666666666667,156.640125
326,2016-10-13,99.91916666666667,57.125,157.04416666666668
326,2016-10-14,80.59037500000001,73.25,153.840375
326,2016-10-15,97.74750000000002,61.083333333333336,158.83083333333335
326,2016-10-16,97.34691666666667,63.208333333333336,160.55525
326,2016-10-17,80.34229166666667,86.54166666666667,166.88395833333334
326,2016-10-18,100.23254166666668,95.45833333333333,195.690875
326,2016-10-19,75.7505,139.375,215.1255
326,2016-10-20,100.24554166666667,81.54166666666667,181.78720833333335
326,2016-10-21,76.07704166666667,105.79166666666667,181.86870833333336
326,2016-10-22,100.22695833333334,68.95833333333333,169.18529166666667
326,2016-10-23,83.98883333333333,76.70833333333333,160.69716666666665
326,2016-10-24,99.85791666666667,61.708333333333336,161.56625
326,2016-10-25,97.50262500000001,63.916666666666664,161.41929166666668
326,2016-10-26,100.18779166666667,63.041666666666664,163.22945833333333
326,2016-10-27,99.62025,64.625,164.24525
326,2016-10-28,99.40104166666667,58.625,158.02604166666669
326,2016-10-29,19.80941666666668,129.33333333333334,149.14275000000004
326,2016-10-30,-0.024583333333333346,150.125,150.10041666666666
326,2016-10-31,41.21425,113.95833333333333,155.17258333333334
326,2016-11-01,76.37341666666667,79.20833333333333,155.58175
326,2016-11-02,98.4744166666667,56.666666666666664,155.14108333333337
326,2016-11-03,77.27608333333335,80.91666666666667,158.19275000000002
326,2016-11-04,99.84179166666665,57.666666666666664,157.50845833333332
326,2016-11-05,78.90741666666665,75.66666666666667,154.5740833333333
326,2016-11-06,100.05824999999999,67.70833333333333,167.7665833333333
326,2016-11-07,84.37904166666665,73.45833333333333,157.83737499999998
326,2016-11-08,90.834875,65.16666666666667,156.00154166666667
326,2016-11-09,99.96379166666668,63.875,163.83879166666668
326,2016-11-10,79.77687500000003,77.75,157.52687500000002
326,2016-11-11,99.77995833333334,61.458333333333336,161.23829166666667
326,2016-11-12,79.66904166666667,80.58333333333333,160.252375
326,2016-11-13,99.69695833333334,67.04166666666667,166.738625
326,2016-11-14,81.80004166666667,79.91666666666667,161.71670833333334
326,2016-11-15,98.15400000000001,63.708333333333336,161.86233333333334
326,2016-11-16,99.43045833333332,57.416666666666664,156.84712499999998
326,2016-11-17,82.314125,76.25,158.564125
326,2016-11-18,100.04116666666668,60.416666666666664,160.45783333333335
326,2016-11-19,82.377875,75.29166666666667,157.66954166666667
326,2016-11-20,100.24558333333333,80.41666666666667,180.66225
326,2016-11-21,78.54191666666667,106.20833333333333,184.75025
326,2016-11-22,100.22595833333334,84.875,185.10095833333332
326,2016-11-23,91.68170833333333,85.45833333333333,177.14004166666666
326,2016-11-24,84.53066666666668,83.54166666666667,168.07233333333335
326,2016-11-25,100.08225,58.541666666666664,158.62391666666667
326,2016-11-26,78.57975,76.75,155.32975
326,2016-11-27,100.09033333333336,81.16666666666667,181.25700000000003
326,2016-11-28,75.41920833333334,94.70833333333333,170.12754166666667
326,2016-11-29,100.24700000000003,73.66666666666667,173.9136666666667
326,2016-11-30,82.78583333333333,83.29166666666667,166.0775
326,2016-12-01,99.94774999999998,60.0,159.94774999999998
326,2016-12-02,96.36508333333335,66.0,162.36508333333336
326,2016-12-03,80.34245833333334,87.875,168.21745833333335
326,2016-12-04,100.25000000000001,85.0,185.25
326,2016-12-05,78.59491666666668,89.25,167.84491666666668
326,2016-12-06,100.25195833333333,67.875,168.12695833333333
326,2016-12-07,77.99591666666667,88.75,166.7459166666667
326,2016-12-08,100.23937500000001,68.41666666666667,168.65604166666668
326,2016-12-09,79.82783333333334,97.83333333333333,177.66116666666667
326,2016-12-10,100.23179166666665,81.54166666666667,181.77345833333334
326,2016-12-11,78.25591666666666,116.20833333333333,194.46425
326,2016-12-12,-0.02416666666666668,170.29166666666666,170.26749999999998
326,2016-12-13,-0.02416666666666668,159.875,159.85083333333333
326,2016-12-14,36.13795833333334,135.41666666666666,171.554625
326,2016-12-15,100.21,102.41666666666667,202.62666666666667
326,2016-12-16,81.41375000000001,123.125,204.53875
326,2016-12-17,100.21954166666667,86.58333333333333,186.802875
326,2016-12-18,76.83266666666665,111.5,188.33266666666665
326,2016-12-19,100.22783333333332,92.29166666666667,192.5195
326,2016-12-20,77.39975,105.41666666666667,182.81641666666667
326,2016-12-21,85.07300000000001,101.625,186.698
326,2016-12-22,100.20400000000001,80.20833333333333,180.41233333333332
326,2016-12-23,80.30858333333335,92.33333333333333,172.64191666666667
326,2016-12-24,100.10787499999999,78.08333333333333,178.19120833333332
326,2016-12-25,80.3515,95.04166666666667,175.39316666666667
326,2016-12-26,100.23029166666669,80.79166666666667,181.02195833333337
326,2016-12-27,92.19125000000001,77.79166666666667,169.98291666666668
326,2016-12-28,90.30008333333335,91.125,181.42508333333336
326,2016-12-29,61.75724999999999,98.125,159.88225
326,2016-12-30,100.15637500000001,74.08333333333333,174.23970833333334
326,2016-12-31,100.23583333333335,76.625,176.86083333333335
326,2017-01-01,100.12345833333332,78.125,178.2484583333333
326,2017-01-02,100.20545833333334,76.08333333333333,176.28879166666667
326,2017-01-03,100.10570833333333,77.25,177.35570833333333
326,2017-01-04,100.128875,70.04166666666667,170.17054166666668
326,2017-01-05,100.25812499999999,78.45833333333333,178.71645833333332
326,2017-01-06,100.19558333333335,80.375,180.57058333333333
326,2017-01-07,100.21941666666665,97.54166666666667,197.76108333333332
326,2017-01-08,100.20341666666668,124.58333333333333,224.78675
326,2017-01-09,100.20212500000001,127.58333333333333,227.78545833333334
326,2017-01-10,100.20025000000003,100.08333333333333,200.28358333333335
326,2017-01-11,100.13020833333331,74.25,174.38020833333331
326,2017-01-12,18.672124999999998,134.04166666666666,152.71379166666665
326,2017-01-13,-0.03625000000000001,159.54166666666666,159.50541666666666
326,2017-01-14,-0.03625000000000001,167.25,167.21375
326,2017-01-15,-0.03666666666666668,175.375,175.33833333333334
326,2017-01-16,47.29804166666667,129.0,176.29804166666668
326,2017-01-17,99.7615,70.83333333333333,170.59483333333333
326,2017-01-18,95.36170833333335,74.66666666666667,170.02837500000004
326,2017-01-19,88.25570833333335,75.66666666666667,163.92237500000002
326,2017-01-20,89.15845833333333,76.79166666666667,165.950125
326,2017-01-21,83.69745833333334,70.04166666666667,153.739125
326,2017-01-22,84.82933333333334,80.625,165.45433333333335
326,2017-01-23,93.97804166666664,78.91666666666667,172.8947083333333
326,2017-01-24,92.4575,81.20833333333333,173.66583333333332
326,2017-01-25,95.86170833333334,76.5,172.36170833333335
326,2017-01-26,92.4885,74.625,167.1135
326,2017-01-27,93.10199999999999,78.25,171.35199999999998
326,2017-01-28,95.78633333333335,80.20833333333333,175.99466666666666
326,2017-01-29,95.44362500000001,87.875,183.318625
326,2017-01-30,98.35745833333335,84.91666666666667,183.27412500000003
326,2017-01-31,98.282625,84.16666666666667,182.44929166666668
326,2017-02-01,94.57699999999998,76.33333333333333,170.9103333333333
326,2017-02-02,93.655125,75.16666666666667,168.82179166666668
326,2017-02-03,24.609291666666692,145.41666666666666,170.02595833333334
326,2017-02-04,-0.03625000000000001,180.875,180.83875
326,2017-02-05,66.34929166666666,113.75,180.09929166666666
326,2017-02-06,12.715374999999996,154.625,167.340375
326,2017-02-07,61.94216666666667,104.5,166.44216666666668
326,2017-02-08,89.26879166666667,66.08333333333333,155.352125
326,2017-02-09,96.49791666666668,94.66666666666667,191.16458333333335
326,2017-02-10,108.76475,82.29166666666667,191.05641666666668
326,2017-02-11,102.1545,70.91666666666667,173.07116666666667
326,2017-02-12,114.30691666666667,78.20833333333333,192.51524999999998
326,2017-02-13,114.03408333333333,71.625,185.65908333333334
326,2017-02-14,116.26083333333334,66.20833333333333,182.46916666666667
326,2017-02-15,106.20320833333335,67.20833333333333,173.41154166666666
326,2017-02-16,112.032375,68.0,180.032375
326,2017-02-17,108.88316666666664,73.125,182.00816666666663
326,2017-02-18,97.14229166666667,66.58333333333333,163.72562499999998
326,2017-02-19,90.02954166666666,65.04166666666667,155.07120833333335
326,2017-02-20,93.96775000000001,65.375,159.34275000000002
326,2017-02-21,97.11787499999997,66.95833333333333,164.07620833333328
326,2017-02-22,91.1085,69.41666666666667,160.52516666666668
326,2017-02-23,85.53529166666668,66.25,151.7852916666667
326,2017-02-24,80.81450000000001,65.58333333333333,146.39783333333332
326,2017-02-25,82.89320833333335,66.45833333333333,149.35154166666666
326,2017-02-26,105.26787500000002,70.54166666666667,175.8095416666667
326,2017-02-27,103.35529166666664,66.25,169.60529166666663
326,2017-02-28,90.69579166666665,65.0,155.69579166666665
326,2017-03-01,87.97529166666668,64.75,152.7252916666667
326,2017-03-02,92.42108333333334,70.20833333333333,162.62941666666666
326,2017-03-03,26.81541666666669,142.54166666666666,169.35708333333335
326,2017-03-04,-0.03666666666666668,190.41666666666666,190.38
326,2017-03-05,-0.03625000000000001,211.0,210.96375
326,2017-03-06,-0.036666666666666674,182.875,182.83833333333334
326,2017-03-07,59.10816666666667,106.29166666666667,165.39983333333333
326,2017-03-08,110.54658333333334,46.916666666666664,157.46325000000002
326,2017-03-09,114.14270833333336,55.0,169.14270833333336
326,2017-03-10,134.204375,45.541666666666664,179.74604166666666
326,2017-03-11,158.36374999999995,43.458333333333336,201.8220833333333
326,2017-03-12,160.35454166666668,66.58333333333333,226.93787500000002
326,2017-03-13,157.68870833333332,44.666666666666664,202.35537499999998
326,2017-03-14,138.69825,66.125,204.82325
326,2017-03-15,161.6157916666667,45.541666666666664,207.15745833333335
326,2017-03-16,153.304125,44.541666666666664,197.84579166666666
326,2017-03-17,124.6937083333333,55.416666666666664,180.11037499999998
326,2017-03-18,127.91412500000003,53.25,181.164125
326,2017-03-19,118.28874999999998,63.458333333333336,181.7470833333333
326,2017-03-20,120.26387499999998,49.5,169.76387499999998
326,2017-03-21,111.95837499999999,50.333333333333336,162.29170833333333
326,2017-03-22,138.09133333333332,44.833333333333336,182.92466666666667
326,2017-03-23,142.117875,44.416666666666664,186.53454166666666
326,2017-03-24,112.6482916666667,55.833333333333336,168.48162500000004
326,2017-03-25,121.35075,48.125,169.47575
326,2017-03-26,119.80666666666667,67.20833333333333,187.015
326,2017-03-27,128.02183333333332,48.416666666666664,176.43849999999998
326,2017-03-28,121.87208333333332,50.625,172.4970833333333
326,2017-03-29,112.25583333333334,51.416666666666664,163.6725
326,2017-03-30,121.31633333333333,48.75,170.06633333333332
326,2017-03-31,113.57070833333334,59.416666666666664,172.98737500000001
326,2017-04-01,123.69295833333332,47.666666666666664,171.359625
326,2017-04-02,108.76183333333334,55.416666666666664,164.1785
326,2017-04-03,98.86658333333332,54.708333333333336,153.57491666666667
326,2017-04-04,110.77774999999998,51.0,161.77774999999997
326,2017-04-05,97.06295833333333,54.958333333333336,152.02129166666666
326,2017-04-06,118.16479166666666,50.125,168.28979166666664
326,2017-04-07,89.47479166666666,74.0,163.47479166666665
326,2017-04-08,98.42766666666667,63.5,161.92766666666665
326,2017-04-09,98.297125,59.5,157.797125
326,2017-04-10,82.55233333333334,66.20833333333333,148.76066666666668
326,2017-04-11,95.91683333333332,55.25,151.16683333333333
326,2017-04-12,78.17258333333332,74.95833333333333,153.13091666666665
326,2017-04-13,97.34004166666665,50.916666666666664,148.2567083333333
326,2017-04-14,95.106375,49.791666666666664,144.89804166666667
326,2017-04-15,73.83608333333332,70.625,144.4610833333333
326,2017-04-16,96.10966666666666,58.583333333333336,154.69299999999998
326,2017-04-17,80.82304166666667,71.95833333333333,152.781375
326,2017-04-18,95.7445,51.625,147.36950000000002
326,2017-04-19,96.43566666666665,55.708333333333336,152.14399999999998
326,2017-04-20,76.09883333333333,73.375,149.47383333333335
326,2017-04-21,97.58087499999999,57.291666666666664,154.87254166666665
326,2017-04-22,77.93508333333334,72.04166666666667,149.97675
326,2017-04-23,97.39966666666665,53.833333333333336,151.23299999999998
326,2017-04-24,95.5821666666667,55.625,151.2071666666667
326,2017-04-25,78.912875,77.75,156.66287499999999
326,2017-04-26,97.37820833333332,55.541666666666664,152.919875
326,2017-04-27,72.21770833333333,74.25,146.46770833333335
326,2017-04-28,98.21404166666666,56.375,154.58904166666667
326,2017-04-29,99.56637500000001,81.75,181.316375
326,2017-04-30,82.18629166666669,82.58333333333333,164.76962500000002
326,2017-05-01,98.81545833333332,57.958333333333336,156.77379166666665
326,2017-05-02,82.465125,77.625,160.090125
326,2017-05-03,98.53491666666666,53.583333333333336,152.11825
326,2017-05-04,96.88245833333332,50.541666666666664,147.42412499999998
326,2017-05-05,106.12425,50.166666666666664,156.29091666666667
326,2017-05-06,103.71050000000002,43.875,147.58550000000002
326,2017-05-07,98.47579166666664,54.166666666666664,152.6424583333333
326,2017-05-08,105.44562500000002,45.541666666666664,150.9872916666667
326,2017-05-09,92.21137500000002,58.416666666666664,150.6280416666667
326,2017-05-10,78.32533333333333,70.08333333333333,148.40866666666665
326,2017-05-11,95.897,49.625,145.522
326,2017-05-12,17.738499999999995,117.91666666666667,135.65516666666667
326,2017-05-13,-0.03666666666666668,145.625,145.58833333333334
326,2017-05-14,-0.03666666666666668,136.79166666666666,136.755
326,2017-05-15,-0.03666666666666668,137.70833333333334,137.67166666666668
326,2017-05-16,-0.03666666666666668,133.79166666666666,133.755
326,2017-05-17,-0.03666666666666668,177.91666666666666,177.88
326,2017-05-18,-0.03666666666666668,256.5833333333333,256.5466666666666
326,2017-05-19,-0.03666666666666668,296.4166666666667,296.38
326,2017-05-20,-0.03666666666666668,181.79166666666666,181.755
326,2017-05-21,-0.03625000000000001,148.29166666666666,148.25541666666666
326,2017-05-22,-0.036666666666666674,143.66666666666666,143.63
326,2017-05-23,-0.03666666666666668,138.58333333333334,138.54666666666668
326,2017-05-24,-0.03666666666666668,141.83333333333334,141.79666666666668
326,2017-05-25,-0.03666666666666668,143.54166666666666,143.505
326,2017-05-26,56.871375,85.08333333333333,141.95470833333331
326,2017-05-27,100.30558333333333,48.583333333333336,148.88891666666666
326,2017-05-28,102.87229166666667,47.875,150.74729166666668
326,2017-05-29,91.42704166666668,58.708333333333336,150.135375